Location: Roland
(31.1349°N, 85.4372°W)
Time: 01:02:00
(UTC+00:00)

S-56A Canister/Altair - Pass Details

Date: 24 April 2021
Orbit: 632 x 2500 km, 38.9° (Epoch: 06 May)

Event Time Altitude Azimuth Distance (km) Brightness Sun altitude
Rises 03:35:17 0° 250° (WSW) 5,460 12.1 -36.7°
Reaches altitude 10° 03:39:21 10° 252° (WSW) 4,189 11.4 -37.3°
Enters shadow 03:48:28 63° 280° (W) 1,532 8.9 -38.5°
